TimeCDT,TemperatureF,Dew PointF,Humidity,Sea Level PressureIn,VisibilityMPH,Wind Direction,Wind SpeedMPH,Gust SpeedMPH,PrecipitationIn,Events,Conditions,WindDirDegrees,DateUTC
12:15 AM,55.4,30.2,38,30.28,10.0,ENE,6.9,-,N/A,,Overcast,70,2013-04-25 05:15:00
12:35 AM,55.4,30.2,38,30.27,10.0,ENE,8.1,-,N/A,,Overcast,70,2013-04-25 05:35:00
12:55 AM,55.4,30.2,38,30.27,10.0,ENE,8.1,-,N/A,,Mostly Cloudy,70,2013-04-25 05:55:00
1:15 AM,53.6,30.2,41,30.27,10.0,ENE,6.9,-,N/A,,Mostly Cloudy,70,2013-04-25 06:15:00
1:55 AM,53.6,32.0,44,30.27,10.0,ENE,8.1,-,N/A,,Overcast,70,2013-04-25 06:55:00
2:15 AM,53.6,32.0,44,30.26,10.0,ENE,8.1,-,N/A,,Overcast,70,2013-04-25 07:15:00
2:35 AM,53.6,33.8,47,30.26,10.0,ENE,6.9,-,N/A,,Overcast,70,2013-04-25 07:35:00
2:55 AM,53.6,33.8,47,30.26,10.0,ENE,6.9,-,N/A,,Overcast,70,2013-04-25 07:55:00
3:15 AM,53.6,33.8,47,30.26,10.0,East,6.9,-,N/A,,Overcast,90,2013-04-25 08:15:00
3:35 AM,53.6,33.8,47,30.27,10.0,East,4.6,-,N/A,,Overcast,90,2013-04-25 08:35:00
3:55 AM,53.6,33.8,47,30.27,10.0,East,6.9,-,N/A,,Overcast,90,2013-04-25 08:55:00
4:15 AM,53.6,33.8,47,30.27,10.0,East,4.6,-,N/A,,Overcast,80,2013-04-25 09:15:00
4:35 AM,51.8,33.8,50,30.28,10.0,East,5.8,-,N/A,,Overcast,90,2013-04-25 09:35:00
4:55 AM,51.8,33.8,50,30.28,10.0,ENE,5.8,-,N/A,,Overcast,70,2013-04-25 09:55:00
5:15 AM,51.8,33.8,50,30.28,10.0,East,8.1,-,N/A,,Overcast,80,2013-04-25 10:15:00
5:35 AM,51.8,33.8,50,30.28,10.0,East,6.9,-,N/A,,Overcast,80,2013-04-25 10:35:00
5:55 AM,51.8,33.8,50,30.28,10.0,ENE,6.9,-,N/A,,Overcast,70,2013-04-25 10:55:00
6:15 AM,51.8,33.8,50,30.28,10.0,East,6.9,-,N/A,,Overcast,90,2013-04-25 11:15:00
6:35 AM,51.8,33.8,50,30.29,10.0,East,4.6,-,N/A,,Overcast,80,2013-04-25 11:35:00
6:55 AM,51.8,33.8,50,30.30,10.0,East,6.9,-,N/A,,Overcast,80,2013-04-25 11:55:00
7:15 AM,51.8,35.6,54,30.30,10.0,ENE,5.8,-,N/A,,Overcast,70,2013-04-25 12:15:00
7:35 AM,51.8,35.6,54,30.31,10.0,East,9.2,-,N/A,,Overcast,90,2013-04-25 12:35:00
7:55 AM,51.8,35.6,54,30.32,10.0,East,8.1,-,N/A,,Overcast,90,2013-04-25 12:55:00
8:15 AM,51.8,35.6,54,30.32,10.0,East,9.2,-,N/A,,Overcast,90,2013-04-25 13:15:00
8:35 AM,51.8,35.6,54,30.32,10.0,East,9.2,-,N/A,,Overcast,100,2013-04-25 13:35:00
8:55 AM,53.6,35.6,51,30.32,10.0,East,9.2,-,N/A,,Overcast,90,2013-04-25 13:55:00
9:15 AM,53.6,35.6,51,30.32,10.0,East,10.4,-,N/A,,Overcast,100,2013-04-25 14:15:00
9:35 AM,53.6,37.4,54,30.32,10.0,East,10.4,-,N/A,,Overcast,90,2013-04-25 14:35:00
9:55 AM,53.6,37.4,54,30.32,10.0,East,9.2,-,N/A,,Overcast,90,2013-04-25 14:55:00
10:15 AM,55.4,37.4,51,30.32,10.0,East,8.1,-,N/A,,Overcast,100,2013-04-25 15:15:00
10:35 AM,57.2,37.4,48,30.31,10.0,ESE,6.9,-,N/A,,Overcast,110,2013-04-25 15:35:00
10:55 AM,55.4,37.4,51,30.31,10.0,SE,9.2,-,N/A,,Overcast,130,2013-04-25 15:55:00
11:15 AM,57.2,39.2,51,30.31,10.0,ESE,10.4,-,N/A,,Overcast,110,2013-04-25 16:15:00
11:35 AM,57.2,39.2,51,30.30,10.0,ESE,10.4,-,N/A,,Overcast,120,2013-04-25 16:35:00
11:55 AM,60.8,42.8,52,30.30,10.0,ESE,10.4,-,N/A,,Overcast,110,2013-04-25 16:55:00
12:15 PM,60.8,42.8,52,30.28,10.0,ESE,11.5,-,N/A,,Overcast,120,2013-04-25 17:15:00
12:35 PM,62.6,44.6,52,30.28,10.0,SE,9.2,-,N/A,,Mostly Cloudy,130,2013-04-25 17:35:00
12:55 PM,60.8,44.6,55,30.28,10.0,SSE,9.2,-,N/A,,Overcast,150,2013-04-25 17:55:00
1:15 PM,60.8,44.6,55,30.27,10.0,SE,10.4,-,N/A,,Overcast,130,2013-04-25 18:15:00
1:35 PM,62.6,44.6,52,30.27,10.0,SSE,9.2,-,N/A,,Overcast,150,2013-04-25 18:35:00
1:55 PM,62.6,44.6,52,30.27,10.0,SSE,8.1,-,N/A,,Overcast,160,2013-04-25 18:55:00
2:15 PM,62.6,44.6,52,30.26,10.0,SE,10.4,-,N/A,,Overcast,130,2013-04-25 19:15:00
2:35 PM,62.6,44.6,52,30.25,10.0,SE,8.1,-,N/A,,Overcast,140,2013-04-25 19:35:00
2:55 PM,62.6,44.6,52,30.24,10.0,SE,5.8,-,N/A,,Overcast,130,2013-04-25 19:55:00
3:15 PM,64.4,44.6,49,30.24,10.0,ESE,10.4,-,N/A,,Overcast,110,2013-04-25 20:15:00
3:35 PM,64.4,42.8,45,30.22,10.0,SE,6.9,-,N/A,,Overcast,140,2013-04-25 20:35:00
3:55 PM,64.4,44.6,49,30.21,10.0,SE,9.2,-,N/A,,Overcast,130,2013-04-25 20:55:00
4:15 PM,66.2,44.6,46,30.20,10.0,SE,10.4,-,N/A,,Overcast,130,2013-04-25 21:15:00
4:35 PM,66.2,42.8,43,30.18,10.0,SE,10.4,-,N/A,,Overcast,140,2013-04-25 21:35:00
4:55 PM,66.2,42.8,43,30.18,10.0,SE,12.7,-,N/A,,Overcast,140,2013-04-25 21:55:00
5:15 PM,66.2,39.2,37,30.18,10.0,SE,10.4,-,N/A,,Overcast,140,2013-04-25 22:15:00
5:35 PM,66.2,37.4,35,30.18,10.0,SE,11.5,-,N/A,,Overcast,130,2013-04-25 22:35:00
5:55 PM,64.4,35.6,34,30.18,8.0,ESE,12.7,-,N/A,,Overcast,120,2013-04-25 22:55:00
6:15 PM,64.4,35.6,34,30.17,10.0,ESE,11.5,-,N/A,,Overcast,110,2013-04-25 23:15:00
6:35 PM,64.4,33.8,32,30.17,10.0,ESE,12.7,-,N/A,,Overcast,120,2013-04-25 23:35:00
6:55 PM,62.6,35.6,37,30.18,10.0,ESE,9.2,-,N/A,,Overcast,120,2013-04-25 23:55:00
7:15 PM,62.6,35.6,37,30.18,10.0,ESE,11.5,-,N/A,,Overcast,120,2013-04-26 00:15:00
7:35 PM,62.6,35.6,37,30.17,10.0,ESE,12.7,-,N/A,,Overcast,110,2013-04-26 00:35:00
7:55 PM,62.6,35.6,37,30.17,10.0,SE,12.7,-,N/A,,Overcast,130,2013-04-26 00:55:00
8:15 PM,60.8,35.6,39,30.16,10.0,SE,11.5,-,N/A,,Overcast,130,2013-04-26 01:15:00
8:35 PM,60.8,35.6,39,30.16,10.0,SE,12.7,-,N/A,,Overcast,130,2013-04-26 01:35:00
8:55 PM,60.8,35.6,39,30.16,10.0,SE,9.2,-,N/A,,Overcast,130,2013-04-26 01:55:00
9:15 PM,60.8,37.4,42,30.16,10.0,SE,10.4,-,N/A,,Overcast,130,2013-04-26 02:15:00
9:35 PM,60.8,37.4,42,30.17,10.0,SE,11.5,-,N/A,,Overcast,130,2013-04-26 02:35:00
9:55 PM,60.8,37.4,42,30.16,10.0,SE,11.5,-,N/A,,Overcast,130,2013-04-26 02:55:00
10:15 PM,60.8,37.4,42,30.16,10.0,SE,10.4,-,N/A,,Mostly Cloudy,140,2013-04-26 03:15:00
10:35 PM,60.8,37.4,42,30.16,10.0,SE,11.5,-,N/A,,Mostly Cloudy,140,2013-04-26 03:35:00
10:55 PM,60.8,39.2,45,30.16,10.0,SE,12.7,-,N/A,,Overcast,140,2013-04-26 03:55:00
11:15 PM,60.8,39.2,45,30.15,10.0,SE,16.1,-,N/A,,Overcast,140,2013-04-26 04:15:00
11:35 PM,60.8,39.2,45,30.14,10.0,SE,13.8,-,N/A,,Overcast,140,2013-04-26 04:35:00
11:55 PM,60.8,41.0,48,30.13,10.0,SSE,16.1,-,N/A,,Overcast,150,2013-04-26 04:55:00